Weather in Koroli

Russia / Amur Oblast     50°28′27″N   129°01′16″E
temp.,
°C
wind,
m/s
gust,
m/s
humid.,
%
clouds,
%
prec.,
mm/h
press.,
hPa
HPBL,
m
27 january, wed
wed2700:00−21ssw469890 0.0 101595
03:00−24ssw349446 0.0 101553
06:00−28ssw47920 0.0 101599
09:00−29ssw349534 0.0 101677
12:00−24sw239593 0.1 1017246
15:00−23wsw239496 0.1 1018355
18:00−25sw2398100 0.0 101929
21:00−27wsw3310098 0.1 102025
28 january, thu
thu2800:00−28w2310092 0.0 102120
03:00−30w2310096 0.1 102120
06:00−32w2310098 0.0 102121
09:00−32w2210098 0.0 102220
12:00−28w2396100 0.0 1022231
15:00−26wnw2494100 0.1 1021423
18:00−30w33100100 0.0 102225
21:00−31nw35100100 0.1 102384
29 january, fri
fri2900:00−32nw3399100 0.0 102361
03:00−34nw3310099 0.1 102333
06:00−35nw2310094 0.0 102319
09:00−35wnw2210092 0.0 102419
12:00−30wnw239316 0.0 1023236
15:00−29wnw239154 0.0 1023374
18:00−34wsw129852 0.0 102419
21:00−35nw119526 0.0 102619
30 january, sat
sat3000:00−35n129236 0.0 102719
03:00−34n228968 0.0 102719
06:00−35nnw228999 0.0 102819
09:00−35nw239588 0.0 102924
12:00−32nw249450 0.0 1029235
15:00−31nw239253 0.0 1028308
18:00−35wnw229712 0.0 102919
21:00−36wnw22976 0.0 103019
31 january, sun
sun3100:00−36w22980 0.0 103019
03:00−37wsw12980 0.0 103019
06:00−38wsw11990 0.0 102919
09:00−36ssw12930 0.0 102919
12:00−31sw12910 0.0 1028185
15:00−30se019140 0.0 1026270
18:00−35ene1110076 0.0 102719
21:00−36n1110041 0.0 102819